星链-35984(STARLINK-35984)

导读

STARLINK-35984是美国太空探索技术公司星链星座的组网卫星,于2025年12月1日发射入轨,归属美国。星链星座旨在构建全球卫星互联网覆盖网络,该卫星的入轨进一步扩充了星链星座的在轨规模,可为全球范围尤其是偏远地区提供高速低延迟的宽带互联服务,推进全球通信网络的全域覆盖进程。

基本信息
目录编号:
66814
目录名称:
STARLINK-35984
国际标识:
2025-278Z
轨道中心:
EARTH
卫星名称:
星链-35984
卫星全名:
星链-35984(STARLINK-35984)
卫星状态:
在轨 (已飞行277 天)
发射日期:
2025-12-01 UTC
国别 :
美国 (US)
星等 :
--
轨道信息
数据来源 国际轨道数据
星历时间: 2026-09-04T12:52:06+0800
8小时前
查看轨道信息
半长轴: 6861.156km
偏心率: 0.000095
轨道倾角: 42.999°
近地点辐角 265.550°
升交点赤经 185.935°
平近点角 94.524°
近地点: 482.367km
远地点: 483.671km
周期: 94.266分钟
每日圈数: 15.275901
详细信息
固有亮度:
5
最大亮度:
2.5
卫星平台:
Starlink V1.0
覆盖范围:
全球
运营商:
太空探索技术公司
运营商所在国:
美国
制造商(研发单位):
太空探索技术公司
制造商所在国:
美国
使用方式:
暂无
卫星简介
Starlink 计划是 SpaceX 推出的全球卫星互联网项目,通过发射低轨道卫星,为全球尤其是偏远地区提供高速、低延迟的互联网服务。自 2019 年起,Starlink 已部署数千颗卫星,旨在缩小全球数字鸿沟,推动互联网普及。该项目还为军事、航空等行业提供通信支持,带来广泛经济效益。
2D轨道图
3D轨道图
轨道高度分析图
轨道倾角分析图
轨道综合分析图
查看轨道综合分析图
交会数据列表
事件ID 空间交会对象 最接近时刻(TCA) 交会距离 交会风险概率(CRP) 交会风险指数(CRI) 操作
CDM_260906-050106-659406-681421
2026-09-06T
05:01:26+0000
0.204 km
中距离
5.44122E-4 高风险 0.9
CDM_260906-001406-314906-681421
2026-09-06T
00:14:14+0000
0.318 km
远距离
3.520228E-4 高风险 0.86
CDM_260830-185206-075006-681422
OBJECT F (60750)
2026-08-30T
18:52:39+0000
0.768 km
远距离
6.339592E-5 中风险 0.71
CDM_260905-230005-628806-681421
2026-09-05T
23:00:41+0000
0.803 km
远距离
3.56099E-5 中风险 0.66
CDM_260905-080605-628806-681421
2026-09-05T
08:06:13+0000
0.922 km
远距离
2.25074E-5 中风险 0.62
CDM_260906-032706-659406-681421
2026-09-06T
03:27:17+0000
0.855 km
远距离
2.167332E-5 中风险 0.62
CDM_260906-063506-659406-681421
2026-09-06T
06:35:36+0000
0.933 km
远距离
1.61471E-5 中风险 0.59
CDM_260905-094005-628806-681421
2026-09-05T
09:40:22+0000
1.052 km
极远距离
1.429235E-5 中风险 0.58
CDM_260905-224006-314906-681421
2026-09-05T
22:40:05+0000
1.069 km
极远距离
1.376046E-5 中风险 0.58
CDM_260906-014806-314906-681421
2026-09-06T
01:48:23+0000
1.390 km
极远距离
5.598516E-6 低风险 0.5